Regional Weather Roundup
Issued by NWS Sioux Falls, SD

Home | Current Version | Previous Version | Text Only | Print | Product List | Glossary On
Versions: 1 2 3 4 5 6 7 8 9 10 11 12 13 14 15 16 17 18 19 20 21 22 23 24 25 26 27 28 29 30 31 32 33 34 35 36 37 38 39 40 41 42 43 44 45 46 47 48 49 50
000
ASUS43 KFSD 310010
RWRFSD

WEATHER ROUNDUP FOR SE SOUTH DAKOTA/SW MINNESOTA/NW IOWA
NATIONAL WEATHER SERVICE SIOUX FALLS SD
700 PM CDT MON MAY 30 2016

NOTE: "FAIR" INDICATES FEW OR NO CLOUDS BELOW 12,000 FEET WITH NO
SIGNIFICANT WEATHER AND OR OBSTRUCTIONS TO VISIBILITY.


SDZ038>040-050-052>070-310100-
SOUTHEAST SOUTH DAKOTA

CITY           SKY/WX    TMP DP  RH WIND       PRES   REMARKS
BROOKINGS      SUNNY     80  54  40 S14       29.78F
CHAMBERLAIN    CLOUDY    76  67  75 SE10      29.71F
6HR MIN TEMP:  76; 6HR MAX TEMP:  83;

HURON          CLOUDY    80  60  50 S9        29.74S
6HR MIN TEMP:  75; 6HR MAX TEMP:  81;

MADISON        FAIR      77  57  50 S12       29.79F
MITCHELL       CLOUDY    80  62  54 S7        29.75F
6HR MIN TEMP:  77; 6HR MAX TEMP:  82;

SIOUX FALLS    MOSUNNY   80  56  43 SE12      29.77F
6HR MIN TEMP:  76; 6HR MAX TEMP:  82;

WINNER         FAIR      79  44  28 S21G33    29.71F
YANKTON        SUNNY     84  54  34 S14       29.75S
$$

MNZ071-072-080-081-089-090-097-098-310100-
SOUTHWEST MINNESOTA

CITY           SKY/WX    TMP DP  RH WIND       PRES   REMARKS
FAIRMONT       CLOUDY    81  55  41 SE15      29.85S
JACKSON        MOSUNNY   81  48  32 S5        29.85F
LUVERNE        SUNNY     81  48  32 S9        29.80F
MARSHALL       SUNNY     84  57  39 S16       29.79F
6HR MIN TEMP:  80; 6HR MAX TEMP:  84;

MONTEVIDEO     MOSUNNY   82  54  36 S10G18    29.81F
PIPESTONE      SUNNY     81  52  36 S13G18    29.81F
REDWOOD FALLS  SUNNY     83  54  36 SE16G22   29.80F
TRACY          SUNNY     83  54  37 S10G21    29.82S
WINDOM         PTSUNNY   82  52  34 CALM      29.83F
WORTHINGTON    MOSUNNY   82  55  39 S15       29.83F
$$

IAZ001>003-012>014-020>022-031-032-NEZ013-014-SDZ071-310100-
NORTHWEST IOWA

CITY           SKY/WX    TMP DP  RH WIND       PRES   REMARKS
CHEROKEE       SUNNY     82  55  39 S10       29.82S
DENISON        DRIZZLE   68  63  83 SW15G21   29.86R
ESTHERVILLE    MOSUNNY   80  58  46 S13G21    29.83F
LE MARS        SUNNY     84  59  42 S15       29.80S
ORANGE CITY    SUNNY     82  57  42 S13       29.81S
SHELDON        SUNNY     82  54  36 S10       29.80F
SIOUX CITY     PTSUNNY   86  59  39 S14       29.79F
6HR MIN TEMP:  82; 6HR MAX TEMP:  88;

SPENCER        SUNNY     83  54  36 S7        29.83F
6HR MIN TEMP:  79; 6HR MAX TEMP:  85;

STORM LAKE     SUNNY     86  50  28 SW14      29.85S
$$

ABBREVIATIONS USED IN REMARKS
   TC - TEMPERATURE IN CELSIUS
  WCI - WIND CHILL INDEX
   HX - HEAT INDEX
  VSB - VISIBILITY




USA.gov is the U.S. government's official web portal to all federal, state and local government web resources and services.